Weather History for Macomb, IL

Change the Weather History Date:

Friday, May 3, 2013

  Actual Average (KBRL) Record (KBRL)
Temperature  
Mean Temperature 47 °F 60 °F  
Max Temperature 53 °F 70 °F 90 °F (1928)
Min Temperature 41 °F 49 °F 28 °F (2005)
Degree Days  
Heating Degree Days 18 7  
Month to date heating degree days 21  
Since 1 July heating degree days 5483  
Cooling Degree Days 0 1  
Month to date cooling degree days 3  
Year to date cooling degree days 23  
Moisture  
Dew Point 44 °F    
Average Humidity 98    
Maximum Humidity 99    
Minimum Humidity 93    
Precipitation  
Precipitation 1.91 in 0.17 in 3.00 in (2013)
Month to date precipitation 0.50  
Year to date precipitation 9.91  
Sea Level Pressure  
Sea Level Pressure 29.97 in    
Wind  
Wind Speed 13 mph (NNW)    
Max Wind Speed 20 mph    
Max Gust Speed 26 mph    
Visibility 7 miles    
Events Rain    
T = Trace of Precipitation, MM = Missing Value Source: NWS Daily Summary

Daily Weather History Graph

Daily Weather History Graph

Search for Another Location

Airport:

Trip Planner

Search our weather history database for the weather conditions in past years. The results will help you decide how hot, cold, wet, or windy it might be!

Date:

Astronomy

May. 03, 2013 Rise Set
Actual Time 5:58 AM CDT 8:00 PM CDT
Civil Twilight 5:29 AM CDT 8:30 PM CDT
Nautical Twilight 4:52 AM CDT 9:07 PM CDT
Astronomical Twilight 4:13 AM CDT 9:46 PM CDT
Moon 2:24 AM CDT (5/3) 1:54 PM CDT (5/3)
Length of Visible Light 15h 01m
Length of Day
14h 01m
Last Quarter, 37% of the Moon is Illuminated
May 3
Last Quarter
May 9
New
May 17
First Quarter
May 24
Full
May 31
Last Quarter

Hourly Weather History & Observations

Time (CDT) Temp. Windchill Dew Point Humidity Pressure Visibility Wind Dir Wind Speed Gust Speed Precip Events Conditions
12:15 AM 43.0 °F 36.8 °F 42.3 °F 97% 30.16 in 10.0 mi North 11.5 mph - N/A Rain Light Rain
12:35 AM 43.3 °F 37.2 °F 42.6 °F 97% 30.16 in 7.0 mi North 11.5 mph - 0.02 in Rain Rain
12:55 AM 43.3 °F 37.7 °F 42.8 °F 98% 30.14 in 7.0 mi North 10.4 mph - 0.04 in Rain Light Rain
1:15 AM 43.3 °F 38.1 °F 42.8 °F 98% 30.13 in 7.0 mi North 9.2 mph - 0.02 in Rain Light Rain
1:35 AM 43.5 °F 37.1 °F 43.0 °F 98% 30.12 in 7.0 mi North 12.7 mph - 0.03 in Rain Light Rain
1:55 AM 43.5 °F 37.1 °F 43.0 °F 98% 30.11 in 10.0 mi North 12.7 mph 17.3 mph 0.04 in Rain Light Rain
2:15 AM 43.5 °F 37.9 °F 42.8 °F 97% 30.11 in 10.0 mi NNW 10.4 mph - 0.01 in Rain Light Rain
2:35 AM 43.5 °F 37.5 °F 43.0 °F 98% 30.10 in 10.0 mi North 11.5 mph 17.3 mph 0.01 in Rain Light Rain
2:55 AM 43.3 °F 36.8 °F 42.8 °F 98% 30.09 in 10.0 mi North 12.7 mph - 0.01 in Rain Light Rain
3:15 AM 43.2 °F 36.2 °F 42.8 °F 99% 30.09 in 10.0 mi North 13.8 mph 19.6 mph N/A   Overcast
3:35 AM 42.8 °F 35.4 °F 42.3 °F 98% 30.08 in 10.0 mi North 15.0 mph - N/A   Overcast
3:55 AM 42.8 °F 35.4 °F 42.3 °F 98% 30.07 in 10.0 mi North 15.0 mph - N/A Rain Light Rain
4:15 AM 42.8 °F 35.1 °F 42.1 °F 97% 30.07 in 5.0 mi North 16.1 mph - 0.01 in Rain Light Rain
4:35 AM 42.8 °F 35.8 °F 42.3 °F 98% 30.06 in 5.0 mi North 13.8 mph - 0.02 in Rain Light Rain
4:55 AM 42.8 °F 35.1 °F 42.3 °F 98% 30.05 in 3.0 mi North 16.1 mph - 0.03 in Rain Light Rain
5:15 AM 42.8 °F 34.8 °F 42.1 °F 97% 30.05 in 7.0 mi NNE 17.3 mph - 0.02 in Rain Light Rain
5:35 AM 42.4 °F 35.0 °F 41.9 °F 98% 30.05 in 5.0 mi North 15.0 mph 20.7 mph 0.06 in Rain Rain
5:55 AM 42.3 °F 35.1 °F 41.9 °F 99% 30.05 in 7.0 mi North 13.8 mph - 0.09 in Rain Rain
6:15 AM 42.3 °F 35.1 °F 41.9 °F 99% 30.04 in 7.0 mi North 13.8 mph 17.3 mph 0.03 in Rain Rain
6:35 AM 41.9 °F 34.6 °F 41.4 °F 98% 30.02 in 5.0 mi North 13.8 mph - 0.08 in Rain Rain
6:55 AM 41.9 °F 35.9 °F 41.2 °F 97% 30.04 in 4.0 mi NNW 10.4 mph - 0.11 in Rain Rain
7:15 AM 41.7 °F 34.8 °F 41.2 °F 98% 30.05 in 4.0 mi NNW 12.7 mph - 0.04 in Rain Rain
7:35 AM 41.5 °F 33.8 °F 41.0 °F 98% 30.03 in 5.0 mi North 15.0 mph - 0.06 in Rain Rain
7:55 AM 41.2 °F 33.0 °F 41.0 °F 99% 30.02 in 7.0 mi North 16.1 mph - 0.09 in Rain Light Rain
8:15 AM 41.4 °F 33.6 °F 41.0 °F 99% 30.03 in 4.0 mi NNW 15.0 mph - 0.03 in Rain Rain
8:35 AM 41.4 °F 33.6 °F 41.0 °F 99% 30.03 in 5.0 mi North 15.0 mph - 0.05 in Rain Light Rain
8:55 AM 41.4 °F 34.0 °F 41.0 °F 99% 30.03 in 10.0 mi NNW 13.8 mph - 0.05 in Rain Light Rain
9:15 AM 41.4 °F 34.0 °F 41.0 °F 99% 30.03 in 5.0 mi North 13.8 mph 18.4 mph 0.02 in Rain Rain
9:35 AM 41.0 °F 33.5 °F 40.8 °F 99% 30.02 in 5.0 mi North 13.8 mph 21.9 mph 0.06 in Rain Rain
9:55 AM 41.4 °F 33.0 °F 41.0 °F 99% 30.01 in 7.0 mi North 17.3 mph - 0.07 in Rain Light Rain
10:15 AM 41.2 °F 32.7 °F 41.0 °F 99% 30.00 in 5.0 mi North 17.3 mph - 0.02 in Rain Light Rain
10:35 AM 41.4 °F 33.0 °F 41.0 °F 99% 30.00 in 7.0 mi North 17.3 mph - 0.05 in Rain Light Rain
11:15 AM 41.9 °F 34.6 °F 41.4 °F 98% 30.01 in 5.0 mi North 13.8 mph - 0.03 in Rain Rain
11:35 AM 41.9 °F 34.3 °F 41.5 °F 99% 30.00 in 7.0 mi NNW 15.0 mph - 0.06 in Rain Light Rain
11:55 AM 41.9 °F 34.3 °F 41.5 °F 99% 30.01 in 4.0 mi NNW 15.0 mph 19.6 mph 0.11 in Rain Heavy Rain
12:15 PM 42.8 °F 34.8 °F 41.0 °F 93% 29.98 in 4.0 mi North 17.3 mph - N/A Rain Rain
12:35 PM 41.9 °F 34.0 °F 41.5 °F 99% 29.98 in 10.0 mi North 16.1 mph - 0.06 in Rain Light Rain
12:55 PM 42.1 °F 34.9 °F 41.9 °F 99% 29.98 in 4.0 mi North 13.8 mph - 0.10 in Rain Rain
1:15 PM 42.3 °F 35.1 °F 41.9 °F 99% 29.97 in 4.0 mi North 13.8 mph - 0.03 in Rain Light Rain
1:35 PM 42.6 °F 35.2 °F 42.1 °F 98% 29.96 in 4.0 mi North 15.0 mph - 0.10 in Rain Rain
1:55 PM 43.2 °F 36.2 °F 43.0 °F 99% 29.95 in 7.0 mi North 13.8 mph - 0.13 in Rain Light Rain
2:15 PM 43.7 °F 37.7 °F 43.3 °F 99% 29.96 in 10.0 mi North 11.5 mph - N/A Rain Light Rain
2:35 PM 43.9 °F 36.5 °F 43.7 °F 99% 29.93 in 10.0 mi North 16.1 mph - 0.02 in Rain Light Rain
2:55 PM 44.1 °F 38.1 °F 43.7 °F 99% 29.93 in 7.0 mi North 11.5 mph - 0.02 in Rain Light Rain
3:15 PM 44.6 °F 38.1 °F 44.2 °F 99% 29.92 in 5.0 mi North 13.8 mph - 0.02 in Rain Rain
3:35 PM 45.0 °F 40.1 °F 44.6 °F 99% 29.92 in 5.0 mi North 9.2 mph 18.4 mph 0.05 in Rain Rain
3:55 PM 45.7 °F 40.2 °F 45.5 °F 99% 29.90 in 7.0 mi North 11.5 mph - 0.08 in Rain Light Rain
4:15 PM 45.9 °F 40.4 °F 45.5 °F 99% 29.90 in 10.0 mi North 11.5 mph 18.4 mph N/A Rain Light Rain
4:35 PM 46.2 °F 40.5 °F 45.7 °F 98% 29.89 in 4.0 mi North 12.7 mph - 0.02 in Rain Rain
4:55 PM 46.4 °F 41.9 °F 46.0 °F 99% 29.89 in 5.0 mi North 9.2 mph - 0.04 in Rain Light Rain
5:15 PM 46.4 °F 40.7 °F 46.0 °F 99% 29.88 in 2.0 mi North 12.7 mph - 0.08 in Rain Heavy Rain
5:35 PM 46.4 °F 39.8 °F 46.0 °F 99% 29.87 in 4.0 mi North 16.1 mph - 0.12 in Rain Light Rain
5:55 PM 46.8 °F - 46.4 °F 99% 29.87 in 10.0 mi North 16.1 mph - 0.13 in Rain Light Rain
6:15 PM 46.8 °F - 46.4 °F 99% 29.86 in 2.5 mi North 11.5 mph 16.1 mph 0.08 in Rain Rain
6:35 PM 46.8 °F - 46.4 °F 99% 29.88 in 3.0 mi West 13.8 mph 17.3 mph 0.19 in Rain Heavy Rain
6:55 PM 46.4 °F 40.4 °F 46.0 °F 99% 29.86 in 10.0 mi NW 13.8 mph - 0.23 in Rain Rain
7:15 PM 46.6 °F - 46.2 °F 99% 29.85 in 5.0 mi NNW 17.3 mph - 0.04 in Rain Rain
7:35 PM 46.6 °F - 46.4 °F 99% 29.85 in 10.0 mi NW 16.1 mph - 0.08 in Rain Rain
7:55 PM 46.4 °F 40.1 °F 46.0 °F 99% 29.86 in 5.0 mi NW 15.0 mph - 0.21 in Rain Rain
8:15 PM 46.9 °F - 46.6 °F 99% 29.85 in 5.0 mi NNW 16.1 mph 23.0 mph 0.05 in Rain Rain
8:35 PM 47.3 °F - 46.9 °F 99% 29.87 in 7.0 mi WNW 15.0 mph - 0.09 in Rain Rain
8:55 PM 47.5 °F - 47.3 °F 99% 29.86 in 7.0 mi NNW 13.8 mph - 0.12 in Rain Rain
9:15 PM 48.2 °F - 47.7 °F 98% 29.86 in 5.0 mi North 13.8 mph - 0.07 in Rain Heavy Rain
9:35 PM 48.2 °F - 47.8 °F 99% 29.84 in 10.0 mi NNW 15.0 mph - 0.10 in Rain Light Rain
9:55 PM 49.5 °F - 49.1 °F 99% 29.83 in 10.0 mi North 16.1 mph - 0.10 in Rain Light Rain
10:15 PM 50.4 °F - 50.0 °F 99% 29.81 in 7.0 mi North 18.4 mph 25.3 mph N/A Rain Light Rain
10:35 PM 51.6 °F - 51.1 °F 98% 29.81 in 7.0 mi North 15.0 mph - N/A Rain Light Rain
10:55 PM 52.0 °F - 51.6 °F 99% 29.84 in 7.0 mi SW 19.6 mph 26.5 mph 0.01 in Rain Light Rain
11:15 PM 52.2 °F - 51.8 °F 99% 29.83 in 7.0 mi SSW 11.5 mph 20.7 mph N/A Rain Light Rain
11:35 PM 53.2 °F - 52.9 °F 99% 29.85 in 7.0 mi South 12.7 mph - 0.01 in Rain Rain
11:55 PM 53.4 °F - 53.1 °F 99% 29.85 in 5.0 mi SW 8.1 mph 17.3 mph 0.05 in Rain Rain